Flag for U.S.A. Weather past 2 weeks in Plano, Texas, U.S.A.

Now
29 °F

Light freezing rain. Overcast.


Feels Like: 15 °F
Forecast: 27 / 38 °F
Wind: 22 mph from Northeast

Location: McKinney Municipal Airport

Current Time: Mar 4, 2015 at 10:16:05 PM

Latest Report: Mar 4, 2015 at 8:53 PM


Visibility: 10 mi

Pressure: 30.22 "Hg

Humidity: 89%

Dew point: 26 °F

Location of PlanoLocation

Historic Weather in Plano — Graph

°F

Plano temperature yesterday

Maximum temperature yesterday: 50 °F (at 5:00 PM)
Minimum temperature yesterday: 41 °F (at 12:53 AM)
Average temperature yesterday: 46 °F

Past Weeks' High & Low Weather Summary

 TemperatureHumidityPressure
High68 °F (Feb 20, 4:53 PM)100% (Feb 25, 6:53 AM)30.65 "Hg (Feb 25, 6:53 AM)
Low24 °F (Feb 24, 12:53 AM)37% (Feb 18, 2:53 PM)29.67 "Hg (Feb 21, 2:53 AM)
Average38 °F82%30.23 "Hg
* Reported Feb 17 7:53 PM — Mar 4 7:53 PM, Plano, Weather by CustomWeather, © 2015

Note: Actual official high and low records may vary slightly from our data, if they occured in-between our weather recording intervals... More about our weather records

Advertising

Plano weather history for previous 24 hours

 ConditionsComfort  
Time TempWeatherWind HumidityBarometerVisibility
7:53 PM
Wed, Mar 4
30 °FLight snow. Ice fog.22 mph89%30.20 "Hg5 mi
6:56 PM31 °FLight snow. Ice fog.17 mph92%30.15 "Hg2 mi
5:53 PM31 °FLight freezing rain. Mostly cloudy.20 mph89%30.16 "Hg8 mi
5:03 PM32 °FFreezing rain. Ice fog.20 mph92%30.09 "Hg3 mi
4:53 PM32 °FLight freezing rain. Ice fog.18 mph88%30.09 "Hg5 mi
3:53 PM33 °FMostly cloudy.18 mph88%30.06 "Hg10 mi
2:53 PM34 °FMostly cloudy.18 mph92%30.05 "Hg10 mi
1:53 PM36 °FRain. Fog.21 mph89%30.03 "Hg4 mi
12:53 PM38 °FLight rain. Low clouds.24 mph90%30.03 "Hg10 mi
11:53 AM41 °FHeavy rain. Fog.21 mph89%30.03 "Hg3 mi
10:53 AM42 °FLight rain. Low clouds.20 mph92%29.98 "Hg8 mi
9:53 AM45 °FRain. Fog.15 mph93%29.99 "Hg3 mi
8:53 AM47 °FFog.15 mph93%29.96 "Hg6 mi
7:53 AM48 °FLight rain. Low clouds.10 mph96%29.96 "Hg10 mi
6:53 AM49 °FMore clouds than sun.12 mph97%29.93 "Hg10 mi
5:53 AM49 °FLight rain. Fog.7 mph100%29.92 "Hg4 mi
4:53 AM49 °FLight rain. Fog.No wind100%29.91 "Hg4 mi
3:53 AM49 °FFog.5 mph100%29.88 "Hg1 mi
3:03 AM49 °FFog.3 mph100%29.86 "Hg1 mi
2:53 AM49 °FFog.No wind100%29.87 "Hg1 mi
1:59 AM49 °FFog.No wind100%29.85 "Hg2 mi
12:53 AM50 °FFog.No wind96%29.88 "Hg1 mi
11:53 PM
Tue, Mar 3
50 °FFog.5 mph96%29.90 "Hg1 mi
10:53 PM50 °FFog.No wind96%29.90 "Hg1 mi
Weather by CustomWeather, © 2015

See weather overviewHow to use our weather pages